Location: Arundel
(45.9667°N, 74.6189°W)
Time: 05:29:01
(UTC+00:00)

BlueWalker 3 - Visible Passes

Search period start: 09 December 2023 00:00
Search period end: 19 December 2023 00:00
Orbit: 490 x 503 km, 53.2° (Epoch: 08 December)

Date Brightness Start Highest point End Pass type
(mag) Time Alt. Az. Time Alt. Az. Time Alt. Az.
12 Dec 4.6 23:34:18 10° S 23:34:26 11° S 23:34:26 11° S visible
13 Dec 4.0 23:11:35 10° S 23:13:04 16° SSE 23:13:04 16° SSE visible
14 Dec 3.7 22:48:51 10° S 22:51:28 18° SE 22:51:37 17° SE visible
15 Dec 4.9 00:25:32 10° WSW 00:26:11 14° WSW 00:26:11 14° WSW visible
15 Dec 3.8 22:26:07 10° S 22:28:42 17° SE 22:30:04 15° ESE visible
16 Dec 3.9 00:02:45 10° WSW 00:04:38 27° WSW 00:04:38 27° WSW visible
16 Dec 3.8 22:03:22 10° S 22:05:56 17° SE 22:08:27 10° E visible
16 Dec 2.6 23:39:58 10° WSW 23:43:01 54° WSW 23:43:01 54° WSW visible
17 Dec 1.7 23:17:11 10° WSW 23:21:03 88° NNW 23:21:19 77° NE visible
18 Dec 1.8 22:54:23 10° WSW 22:58:15 89° NNW 22:59:34 40° ENE visible
